Wind_Speed
4 6 8 9 10 11 13 14 15 17 18 19 20 21 21 20 20 21 21 22 23 25 26 27 27 26 26 26 26 26 27 27 28 28 28 28 27 27 27 26 26 25 26 25 25 26 25 25 24 23 23 22 21 20 20 19 18 18 17 17 17 16 16 16 17 17 18 20 21 23 24 25 26 27 28 28 29 28 28 28 27 27 26 25 24
3 3 4 6 8 9 10 11 11 13 15 16 17 17 19 19 19 18 19 20 21 22 23 25 25 25 24 24 24 24 24 25 26 27 27 26 25 25 25 25 25 25 25 26 26 26 25 24 23 22 21 21 20 19 18 18 17 16 15 14 14 13 14 14 15 16 17 19 20 22 23 25 26 27 27 27 28 27 27 26 25 25 24 24 24
4 4 3 3 4 6 8 9 9 9 11 13 14 14 15 16 17 17 17 17 18 19 20 21 22 23 22 21 21 20 20 21 22 23 23 23 24 24 24 24 24 24 24 24 24 24 23 22 21 21 20 19 18 17 16 15 14 13 12 11 11 11 12 12 13 15 16 18 19 20 22 24 25 26 26 26 26 26 25 24 23 23 23 23 23
6 5 4 3 3 3 5 6 7 7 8 9 10 11 12 13 15 15 15 15 15 16 17 18 19 19 20 19 18 17 17 17 18 19 20 21 22 22 23 23 23 23 23 22 22 21 20 20 19 18 18 17 16 15 14 13 12 11 10 9 9 9 10 11 12 14 15 16 17 19 20 22 24 24 25 25 25 25 24 22 21 21 22 22 22
9 7 6 5 4 4 4 4 4 5 5 6 7 8 8 10 11 13 13 13 13 12 13 14 15 16 16 16 16 15 14 14 14 15 17 18 19 19 20 20 21 21 20 20 19 18 18 17 16 16 15 15 14 13 12 11 10 9 8 7 7 8 8 9 11 12 13 14 15 17 19 21 22 23 24 25 25 25 22 20 20 20 20 22 23
12 11 10 8 8 7 6 5 4 3 3 3 4 4 4 5 7 9 10 11 11 10 10 10 11 12 12 12 13 12 12 11 11 11 12 13 14 15 16 17 18 18 17 17 16 15 15 14 14 14 13 13 13 12 11 9 8 7 6 6 6 6 7 8 9 10 11 12 14 15 17 19 21 22 23 24 24 23 21 19 20 19 19 22 24
15 14 13 12 11 10 10 9 8 6 4 3 3 3 2 1 2 3 5 7 8 8 8 8 8 8 8 9 9 9 9 8 8 8 8 9 10 11 12 14 15 15 15 14 13 12 12 12 12 12 12 12 12 11 10 8 7 5 4 4 3 4 5 6 7 8 10 11 13 14 16 18 20 21 22 23 23 21 18 17 18 18 19 21 23
18 18 17 16 15 14 13 12 11 9 8 6 5 5 4 3 2 2 1 1 3 4 4 4 5 5 5 5 6 6 6 6 6 5 5 5 6 8 9 10 11 12 12 12 11 11 10 10 11 11 11 11 11 10 9 8 6 5 3 1 1 2 4 5 7 8 9 11 12 14 16 18 19 20 21 22 22 20 16 15 15 16 18 20 21
21 21 20 19 18 17 16 15 14 12 11 9 8 8 7 7 7 6 6 5 4 3 2 1 0 1 1 2 3 4 4 4 4 4 4 4 4 6 7 8 10 11 11 11 11 10 10 10 10 11 10 10 10 10 9 7 6 4 3 2 2 3 4 6 8 9 11 12 14 15 17 18 20 20 21 21 21 19 15 13 13 13 14 17 19
23 23 23 23 22 20 19 18 17 16 14 13 12 11 11 10 10 10 10 10 9 8 7 7 6 4 3 1 1 2 2 2 3 4 5 6 7 7 8 9 10 11 11 11 11 11 11 11 10 10 10 10 10 9 9 8 7 6 6 6 6 6 7 9 11 12 13 14 16 17 18 19 19 20 20 20 20 18 15 12 11 11 11 12 15
26 27 27 26 25 24 23 22 22 21 19 17 15 14 13 13 13 12 13 13 14 13 12 11 10 9 8 6 5 3 3 3 3 4 5 7 8 9 10 10 11 12 13 13 14 13 13 12 12 12 12 12 12 12 11 11 11 11 11 12 11 11 12 13 15 16 17 18 18 19 19 19 19 19 19 19 17 16 13 11 10 9 9 9 11
29 30 30 29 29 28 27 27 27 26 24 21 19 18 17 16 16 15 15 15 15 15 15 15 15 14 13 11 10 10 9 8 7 6 6 7 9 10 11 12 13 14 15 16 17 16 16 16 16 16 16 16 16 16 16 15 16 16 16 17 17 16 16 18 19 20 21 21 21 20 20 20 20 19 18 17 15 13 12 11 11 10 9 9 9
31 30 30 31 31 31 31 31 31 30 28 26 24 23 21 20 19 19 18 18 17 17 17 18 18 18 17 16 15 14 14 13 13 12 11 11 11 11 12 13 15 16 18 19 19 19 19 20 21 21 21 21 21 21 21 21 21 21 22 22 22 22 21 21 22 23 23 23 23 22 21 21 21 21 19 16 14 13 12 11 11 11 9 8 8
34 31 30 30 33 35 35 35 35 34 33 32 30 28 25 23 22 21 21 21 20 20 20 20 20 20 20 20 19 18 18 17 17 17 16 16 15 15 14 14 15 17 19 20 20 20 21 22 24 24 24 25 25 25 26 26 26 26 26 26 27 26 25 23 24 24 25 24 24 24 24 23 23 23 22 19 15 14 13 13 13 13 12 11 9
35 32 30 31 35 36 35 35 36 37 38 37 35 32 28 25 24 24 24 24 24 24 24 23 22 22 22 23 22 21 21 20 21 21 20 20 20 20 19 18 18 18 19 20 21 22 23 24 25 26 27 27 27 27 28 28 28 28 28 28 28 28 27 25 25 26 26 25 25 26 26 26 26 25 25 23 20 17 16 14 14 14 15 15 14
37 35 34 35 35 33 33 35 36 38 40 40 37 33 31 29 27 26 25 25 25 25 26 26 25 25 25 26 25 23 23 23 23 23 23 23 23 23 23 23 23 23 23 23 22 22 23 25 27 28 29 29 28 29 29 29 30 30 30 29 29 29 28 27 27 27 27 26 26 27 27 28 28 28 27 26 24 22 20 17 16 15 16 17 18
41 41 39 39 37 34 34 36 36 39 41 40 36 33 32 32 31 30 28 27 27 28 28 27 27 27 28 28 27 26 25 25 25 26 26 26 25 25 26 26 26 27 27 27 26 26 25 25 26 28 29 30 30 30 30 30 31 31 31 31 30 29 29 29 28 28 28 27 27 27 27 28 28 29 29 28 27 25 23 21 19 18 19 20 21
48 47 44 42 41 40 39 38 39 42 43 41 36 31 31 32 32 31 31 30 31 31 31 31 29 30 31 32 31 31 30 30 30 29 29 28 28 28 29 29 29 30 30 29 29 30 29 29 28 29 29 29 30 30 31 32 32 32 32 31 31 30 30 29 29 29 29 29 29 29 29 29 28 29 30 30 30 28 26 25 23 23 23 24 25
51 49 47 44 44 44 43 41 41 43 43 42 37 32 30 31 32 33 34 34 34 36 37 37 36 36 36 37 37 37 37 37 36 36 35 34 34 34 34 33 33 33 33 33 33 33 33 33 33 32 32 31 31 31 31 32 32 31 31 32 32 32 32 31 30 30 30 30 31 31 31 31 31 31 30 31 31 31 31 30 29 28 28 28 28
49 48 48 45 43 44 45 44 42 42 42 42 39 35 32 32 34 37 39 39 38 38 40 42 42 42 41 41 41 41 41 41 40 39 39 39 39 40 40 39 38 37 38 39 39 38 37 37 38 37 36 35 33 33 32 32 31 32 32 33 33 33 33 33 32 32 31 32 32 32 32 32 33 34 34 34 34 34 33 33 33 33 33 33 33
47 46 45 44 42 44 47 47 46 46 45 45 42 38 35 35 37 40 42 42 42 42 44 45 45 45 45 45 46 46 45 44 43 42 42 41 41 42 43 42 41 42 41 40 40 41 40 40 40 40 39 38 37 36 35 34 33 33 34 35 35 35 35 34 34 34 34 34 34 34 35 35 35 35 36 38 38 38 38 37 36 35 35 35 35
48 45 44 43 42 44 48 49 50 50 48 46 44 40 37 39 41 42 41 43 45 46 47 49 48 48 49 49 48 47 46 46 47 48 48 46 45 45 44 43 42 42 41 40 42 44 44 44 43 41 41 40 40 39 38 38 37 37 36 36 37 36 35 35 36 36 36 36 36 37 37 38 37 37 37 39 40 41 41 42 41 39 37 36 36
56 53 51 51 49 48 49 51 53 53 50 48 47 44 44 46 47 46 44 45 46 47 49 51 49 48 50 50 48 46 46 47 49 49 49 49 48 48 47 45 44 43 43 44 45 46 47 47 46 44 43 43 42 42 41 39 39 39 39 39 39 38 37 37 37 38 38 39 39 40 41 41 41 41 42 42 43 44 44 45 46 45 44 42 41
63 62 62 62 61 59 58 58 59 60 59 57 56 55 54 54 54 53 53 52 51 51 54 55 52 51 53 55 54 52 52 52 52 52 51 51 51 51 51 51 50 49 48 48 49 49 49 48 47 46 45 44 44 45 44 42 41 41 41 43 43 43 42 41 41 41 41 42 43 44 45 45 46 46 47 47 48 48 48 49 50 50 50 50 50
68 67 68 69 70 70 70 69 68 68 69 68 67 66 65 64 64 64 64 62 59 58 59 59 57 57 61 63 63 61 59 58 60 61 60 58 57 56 56 57 57 56 55 54 55 56 56 54 52 51 51 50 49 49 49 48 48 49 51 51 50 49 49 49 48 47 45 45 46 47 48 49 50 50 51 52 52 53 53 54 54 54 54 54 55
74 73 73 74 75 77 78 77 75 74 73 73 72 71 71 71 72 72 71 69 67 65 64 63 63 64 67 69 70 69 69 68 68 68 67 65 63 62 61 61 61 61 60 59 59 60 61 61 60 59 59 59 59 58 57 57 58 60 61 60 59 57 56 55 55 54 52 50 49 50 51 52 52 53 54 55 55 56 56 57 57 57 57 57 57
80 80 79 80 80 81 82 82 82 81 81 80 79 77 76 76 76 75 74 74 74 74 74 74 75 75 75 76 76 76 77 77 75 73 72 71 70 68 66 65 64 64 63 62 62 63 63 64 64 64 63 64 64 63 62 62 64 66 67 66 66 65 63 61 60 60 58 56 55 54 54 55 56 58 58 58 58 59 60 60 60 60 60 60 60
83 84 85 86 86 87 87 87 88 89 90 89 87 85 84 84 84 82 81 81 82 83 84 84 84 84 83 82 82 82 83 82 81 79 77 77 76 74 72 70 68 67 67 66 67 67 67 66 66 67 68 68 69 68 67 66 67 68 69 69 69 69 68 66 65 64 63 63 62 61 60 60 61 63 63 64 64 65 65 64 63 63 63 63 64
85 86 88 90 92 93 93 92 93 95 96 94 92 91 90 90 90 90 89 89 90 90 90 90 89 89 89 88 87 87 87 86 85 84 83 82 81 79 77 75 72 71 70 70 71 71 70 69 70 71 72 72 73 73 72 71 70 70 70 71 71 71 71 71 71 71 72 71 71 70 69 69 68 68 69 71 72 71 71 70 69 69 68 68 68
89 88 88 90 93 96 97 98 97 97 98 97 95 94 94 94 95 95 95 94 94 94 93 92 92 91 91 91 90 90 90 89 88 88 87 87 86 84 81 79 77 76 74 74 74 74 73 72 72 73 75 76 77 77 76 75 74 74 74 75 76 76 76 76 76 77 78 77 77 76 76 76 76 76 76 77 77 77 77 77 76 75 75 74 74
91 91 90 91 93 96 98 100 100 100 100 99 98 97 97 97 97 97 97 97 97 96 96 95 95 94 94 94 93 93 92 92 91 90 91 91 91 89 87 85 82 80 78 77 76 76 76 76 76 77 77 77 78 79 79 79 78 78 78 78 79 79 80 80 80 80 80 80 80 80 80 81 81 81 81 82 82 83 82 81 80 80 80 80 80
93 94 94 92 93 95 98 99 100 99 97 96 95 94 95 96 97 97 98 98 99 98 97 96 96 97 96 95 95 94 94 94 94 93 93 93 93 93 92 90 87 83 82 81 80 79 79 80 81 81 81 80 79 79 80 81 82 82 82 81 81 81 81 81 81 82 82 83 83 84 84 84 85 85 85 86 87 88 88 87 86 86 86 86 85
94 95 96 96 95 96 98 99 100 98 96 95 94 93 92 92 93 95 96 96 96 96 96 96 96 97 97 97 96 95 95 95 95 95 95 94 95 95 95 94 92 88 85 84 84 83 83 84 85 85 85 84 83 82 82 82 82 83 84 84 85 85 84 84 85 85 85 86 86 87 87 87 88 88 89 89 90 90 91 91 91 91 91 91 91
100 99 99 99 99 99 100 101 102 101 100 100 99 99 98 97 96 96 97 97 96 96 95 95 94 95 96 97 97 97 96 95 95 95 95 94 94 95 95 96 95 94 92 90 88 87 88 89 90 91 90 90 89 88 87 86 86 85 86 86 87 87 88 88 89 90 90 90 90 90 90 90 91 91 92 93 93 93 93 94 95 95 96 96 96
112 109 107 106 105 105 104 104 105 105 106 105 105 104 104 104 103 102 102 102 102 102 102 100 99 98 97 97 98 98 98 98 97 96 96 95 95 94 94 95 95 96 97 96 95 93 93 93 93 94 95 95 95 94 94 93 92 91 91 91 91 91 91 92 92 93 94 94 95 95 95 95 95 95 96 96 97 97 98 98 99 99 100 100 101
123 121 119 118 116 115 114 113 113 113 113 113 113 112 111 110 110 109 109 108 108 109 110 110 108 107 106 105 104 103 103 102 102 101 101 100 99 98 98 97 97 98 98 99 99 99 99 98 98 98 98 99 99 99 98 98 97 96 96 95 95 95 96 96 97 97 98 98 98 99 99 99 99 100 100 101 101 102 102 103 103 104 104 105 105
127 128 128 128 128 127 126 126 125 125 125 124 124 123 122 120 118 118 117 116 116 116 116 117 117 116 116 115 114 113 112 111 111 110 109 108 107 106 105 105 105 105 105 105 105 104 104 104 103 103 102 102 102 102 102 102 101 101 101 100 100 99 99 100 100 101 102 103 103 104 104 104 104 104 104 105 105 106 106 107 107 108 109 109 110
126 127 128 131 133 135 135 135 135 134 134 133 133 132 131 130 129 127 126 125 124 123 122 122 122 122 122 122 121 121 121 120 120 119 118 117 116 114 113 112 112 112 111 111 111 110 110 109 109 108 108 108 108 108 108 108 108 108 107 107 106 105 104 104 104 105 105 106 107 108 108 108 108 108 109 109 109 109 110 111 111 112 113 114 114
127 127 128 129 131 133 136 137 137 137 137 138 138 137 137 136 136 135 135 134 133 132 130 130 129 129 128 128 128 128 128 128 128 128 127 126 125 123 121 120 119 118 117 116 115 114 113 113 113 114 114 114 114 114 115 115 115 114 114 113 112 111 110 110 110 110 111 111 111 111 111 111 111 111 112 112 112 113 113 114 115 116 116 117 118
130 130 130 130 131 132 133 134 134 135 136 137 138 139 139 139 139 139 139 139 139 139 138 137 137 136 136 135 135 135 135 135 135 134 134 133 131 130 129 127 126 125 124 122 121 119 118 117 117 117 117 117 116 116 116 116 117 117 117 117 116 116 115 115 115 115 115 116 116 116 116 116 117 117 117 118 118 118 119 120 121 121 122 122 123
132 132 133 133 134 134 134 134 134 134 134 135 136 137 138 139 140 140 140 140 140 141 141 141 141 142 142 141 141 141 141 140 140 139 137 136 135 134 133 132 131 129 128 127 126 126 125 125 124 122 121 119 118 118 117 117 117 117 118 118 119 119 119 119 119 119 119 119 120 120 120 120 121 122 123 123 124 124 125 125 126 126 127 127 127
135 135 136 136 136 137 137 137 137 137 138 137 138 138 138 139 139 140 140 140 141 141 141 141 141 142 142 141 141 142 142 143 143 142 141 140 138 137 136 135 134 133 132 131 130 130 130 130 130 129 128 127 125 124 123 122 121 120 120 120 120 121 121 121 121 121 122 122 122 123 123 123 124 124 125 127 127 128 129 129 130 130 130 130 130
137 137 138 139 139 140 140 140 140 140 140 140 141 141 141 141 142 142 142 142 142 142 142 141 141 141 140 140 140 140 140 141 142 142 142 142 141 140 139 138 137 137 137 136 135 134 134 133 133 133 133 133 133 132 131 130 129 128 126 126 125 125 125 124 124 124 124 125 125 125 126 126 126 127 127 128 129 129 130 130 131 131 132 132 133
139 139 139 140 140 141 142 142 142 142 142 142 142 142 143 143 144 145 144 144 144 144 143 143 142 142 141 141 141 141 141 141 142 142 142 142 142 142 142 141 141 141 141 141 141 140 140 139 139 138 138 138 138 137 137 136 135 135 134 133 133 132 132 131 130 130 129 129 129 128 128 128 128 128 129 129 129 130 130 130 130 131 132 133 133
141 141 141 141 141 142 143 143 143 143 144 143 143 143 144 144 145 145 145 145 145 144 144 144 144 144 143 143 143 143 143 143 143 143 144 144 144 144 143 143 143 143 143 143 143 143 143 143 143 142 142 142 142 141 141 140 139 139 138 137 137 136 136 136 135 135 134 134 133 133 132 132 132 132 132 132 132 132 132 133 133 133 134 134 135
143 143 143 143 143 144 144 144 145 145 145 145 145 145 146 146 146 146 146 146 145 145 144 144 144 144 144 144 144 144 144 144 144 144 145 145 144 144 144 144 145 145 145 145 145 145 145 145 144 144 143 143 143 143 142 142 142 141 141 140 140 140 140 140 140 139 139 138 138 137 136 136 136 135 136 136 135 136 136 136 137 137 137 137 138
145 146 146 146 146 146 147 147 147 147 147 147 147 147 147 148 148 148 148 147 147 146 145 145 144 144 144 144 144 143 143 143 143 144 144 145 145 145 145 146 146 146 146 146 146 146 146 146 146 146 146 145 145 145 145 145 145 145 145 144 144 144 144 144 144 143 142 142 141 140 139 139 139 139 139 139 139 139 140 140 140 140 141 141 141
146 146 147 147 148 148 148 149 149 149 149 149 149 149 149 150 150 151 151 150 149 148 147 147 146 146 146 145 145 144 144 144 144 145 145 145 145 146 146 146 146 146 146 146 146 146 146 146 146 146 146 146 146 146 146 146 146 146 146 146 146 146 146 145 145 145 144 144 143 143 143 143 143 143 144 144 144 144 144 144 144 144 145 145 145
141 143 145 146 147 148 148 149 150 150 150 150 150 150 151 151 152 153 153 152 151 151 150 149 148 148 148 147 147 146 146 146 147 147 147 147 147 147 147 148 148 147 147 147 146 146 146 147 147 147 147 147 147 147 147 147 147 147 147 147 147 147 147 147 146 146 146 146 146 146 146 146 146 147 147 147 147 147 147 147 147 147 148 148 148
131 134 136 138 140 142 143 145 146 147 148 149 149 150 151 152 153 154 154 154 153 152 152 152 151 151 150 149 149 148 148 149 149 149 149 149 149 149 149 149 149 148 148 148 148 148 149 149 149 149 148 148 148 149 149 149 149 149 149 149 149 149 149 148 148 148 148 148 147 147 147 148 148 148 148 148 148 148 148 148 148 148 148 149 149
121 124 126 128 130 132 134 135 137 138 139 141 142 143 144 146 148 149 150 150 150 150 150 150 151 151 150 150 149 149 149 150 150 150 150 150 150 150 150 150 150 150 150 150 151 151 152 152 151 151 151 150 150 150 150 150 150 150 150 151 151 150 150 150 150 150 149 149 148 148 148 148 148 148 148 148 148 148 148 148 148 148 148 149 149
Wind_Direction
29 41 46 48 49 50 48 46 48 51 50 50 53 58 58 59 64 69 70 69 69 71 72 71 72 75 78 82 87 91 94 99 106 111 114 116 119 121 123 124 125 126 127 127 127 128 129 131 132 133 133 131 129 128 125 120 114 108 102 96 91 84 78 71 65 59 53 49 46 43 40 37 34 31 29 27 26 27 27 27 27 28 31 33 36
321 360 27 37 41 45 46 44 43 46 47 46 46 53 58 58 60 66 72 74 72 72 73 74 74 75 78 83 87 92 96 102 109 114 116 118 120 123 125 126 127 127 128 129 130 131 132 134 135 135 134 133 131 129 124 119 114 108 101 94 87 80 73 65 59 53 48 45 42 40 37 34 31 27 24 23 23 25 25 26 27 30 33 35 38
288 304 331 9 27 33 40 45 42 37 39 42 41 44 52 57 59 60 66 74 76 76 77 77 77 77 79 81 85 90 95 103 112 118 120 122 124 127 128 129 131 131 131 132 133 134 134 135 136 136 135 134 133 129 125 121 116 109 102 94 86 78 69 60 53 48 44 41 39 37 35 31 28 24 22 21 21 22 24 27 29 32 36 39 41
275 284 293 313 338 356 19 35 40 36 32 33 38 42 46 52 58 59 60 65 73 78 80 80 81 81 82 83 84 88 93 101 112 121 125 127 129 131 133 134 136 137 137 137 138 139 138 137 137 137 137 138 136 133 128 124 119 112 105 96 86 76 66 55 48 43 38 35 34 32 30 27 24 20 18 18 18 20 26 32 35 36 39 43 47
265 268 271 281 294 306 318 344 12 30 29 24 30 41 46 47 52 56 57 59 64 73 79 83 84 85 85 86 87 88 91 99 110 120 129 133 135 137 139 141 142 144 145 144 144 144 143 142 142 141 142 141 140 137 132 129 124 118 110 100 88 75 63 51 42 36 30 28 27 25 24 21 18 15 14 15 15 19 29 37 41 44 44 47 54
257 258 260 263 270 277 283 291 303 324 343 352 4 22 40 44 46 49 53 56 60 66 73 79 85 87 89 89 90 90 91 96 106 118 129 136 141 144 146 148 149 151 152 151 149 148 147 149 149 149 149 148 146 144 141 139 135 129 118 106 91 73 56 43 33 25 20 19 18 17 15 14 12 9 9 10 10 16 29 37 40 51 55 53 56
253 253 252 254 257 261 266 270 272 277 286 295 303 321 343 24 43 40 42 48 53 61 70 76 81 88 93 95 94 94 92 92 100 111 126 138 147 152 155 158 160 161 161 161 159 156 154 154 154 154 153 153 153 152 152 154 154 149 136 115 87 59 40 26 17 11 9 9 7 7 6 5 4 3 3 5 6 11 28 37 37 49 61 60 57
252 252 250 249 250 252 254 258 259 261 263 266 266 269 269 257 243 256 289 354 29 44 63 74 79 85 97 104 103 103 102 101 102 110 123 142 156 163 166 170 172 174 175 175 174 173 170 167 164 162 160 161 163 166 170 174 176 174 167 147 42 18 8 357 353 352 354 355 355 355 356 355 356 356 357 0 2 5 20 36 35 41 53 58 57
255 255 254 252 249 249 251 253 255 255 255 253 252 251 252 251 249 247 246 245 253 271 283 284 324 102 112 101 89 93 107 120 133 146 159 173 185 192 191 189 188 188 189 191 192 192 191 187 181 177 177 181 184 187 190 194 198 209 229 255 291 317 323 323 324 329 334 338 339 342 345 346 347 349 352 357 359 359 6 24 32 36 42 44 42
256 256 255 255 254 253 253 254 254 254 253 250 247 246 247 249 250 250 250 248 248 250 258 266 268 262 253 257 63 95 126 159 185 195 202 207 211 213 213 214 212 208 206 205 205 204 202 201 199 197 201 207 211 212 215 221 231 243 259 272 285 294 301 305 310 314 319 322 326 330 334 337 339 341 347 352 355 356 357 6 21 35 42 38 31
255 255 253 253 254 254 253 252 252 252 252 250 250 250 250 251 253 253 253 254 254 253 255 259 263 266 264 262 255 233 221 229 227 224 229 234 234 233 230 228 227 226 225 223 222 219 217 218 218 218 222 227 231 236 241 248 255 263 272 278 284 289 293 298 301 305 309 313 317 322 325 328 329 333 340 346 350 353 352 349 356 15 31 39 37
256 258 258 255 253 253 252 251 251 251 251 250 249 248 248 248 251 251 250 252 254 256 257 258 259 261 262 263 259 250 245 248 251 248 246 245 245 245 243 242 240 238 237 236 235 235 235 236 237 236 237 242 247 252 256 261 266 270 275 278 281 285 289 293 296 299 302 306 311 314 316 319 322 326 332 338 342 346 348 341 336 346 1 12 21
253 258 261 260 256 253 252 250 250 250 250 249 247 246 246 248 251 253 253 254 255 254 254 255 257 259 260 260 260 256 251 251 252 254 254 252 251 250 249 249 248 248 247 245 244 243 243 245 247 247 247 250 254 258 262 265 267 270 273 277 280 282 285 288 292 295 297 301 305 308 310 313 316 319 323 328 331 333 337 334 324 319 323 334 346
248 253 258 259 257 254 250 246 247 248 246 246 245 244 245 247 250 253 254 256 257 256 253 253 255 258 259 259 259 258 256 254 254 255 256 259 260 260 258 256 254 254 254 253 252 251 248 248 250 251 252 254 256 259 261 264 266 269 272 275 278 281 284 286 287 289 292 296 300 303 305 308 310 313 316 318 317 317 320 321 315 307 301 302 310
249 254 257 258 257 255 249 245 246 246 241 239 240 241 243 245 247 248 250 253 255 256 256 256 256 257 258 259 260 260 259 258 258 257 257 259 261 263 266 266 264 262 260 259 257 255 254 253 254 254 255 255 256 258 260 263 266 268 270 273 276 279 282 284 284 285 288 292 295 297 300 303 305 307 309 310 309 307 308 308 305 302 297 294 294
251 255 255 253 252 251 248 244 245 246 242 237 237 239 242 245 246 247 249 251 252 253 254 256 257 258 258 259 259 260 260 259 260 260 261 261 262 264 266 267 268 268 267 266 263 261 259 257 257 258 258 259 259 259 260 262 265 267 269 271 273 276 279 281 282 284 287 289 291 293 296 299 301 303 304 305 304 304 304 301 297 295 292 289 288
250 252 251 248 244 244 244 242 242 246 245 241 240 243 246 248 250 251 252 253 253 252 251 253 256 259 258 258 259 260 259 258 258 259 259 261 263 266 268 268 270 270 271 271 269 267 264 262 261 261 261 262 263 263 263 264 264 266 269 271 273 276 278 279 281 283 286 287 289 291 293 295 298 300 301 301 301 301 301 299 297 295 291 287 286
249 250 247 243 240 240 240 241 243 245 244 241 242 247 250 250 251 253 255 256 254 253 253 255 257 258 258 258 260 261 261 260 258 257 257 257 260 263 267 269 269 270 271 272 271 269 268 267 266 265 263 263 263 264 265 265 265 267 269 270 272 273 274 276 279 281 285 287 290 291 293 294 296 297 297 298 298 298 297 296 296 296 293 291 291
249 247 242 240 239 237 238 241 244 244 243 243 246 247 249 252 255 256 257 256 254 254 256 257 258 258 257 258 260 263 264 262 261 260 260 260 261 263 265 265 265 267 268 270 271 269 268 267 266 265 264 263 262 262 263 264 266 268 269 270 270 270 270 272 275 279 283 286 289 291 293 295 295 295 294 293 293 293 293 293 294 295 295 295 295
248 244 239 238 237 236 238 241 242 242 245 250 250 245 244 249 254 257 257 255 254 255 257 257 258 258 258 259 261 263 264 263 263 264 266 266 266 266 265 263 264 265 266 268 271 271 269 266 265 264 263 263 261 261 261 263 264 266 267 268 269 270 271 272 275 277 280 282 286 289 291 292 293 293 293 291 289 288 288 289 291 293 294 294 295
244 243 238 236 236 237 239 240 239 239 245 253 254 248 244 244 246 250 253 253 253 256 258 257 257 258 259 260 261 262 262 262 263 266 269 271 270 269 267 267 266 265 266 267 268 267 266 265 264 263 262 262 261 260 260 261 262 262 263 264 266 268 271 273 275 277 278 280 283 286 287 288 289 289 290 290 289 286 284 283 284 285 287 289 291
236 237 233 230 232 235 237 237 237 239 243 249 251 247 243 240 240 242 246 249 253 256 257 256 256 258 259 259 258 258 259 261 264 268 270 272 273 272 272 271 268 264 264 264 263 264 265 265 265 265 264 264 264 262 260 259 259 259 260 261 263 265 268 271 273 274 277 279 281 282 283 285 286 287 288 288 288 288 286 284 283 281 281 282 284
229 230 229 228 228 231 233 233 233 234 236 238 238 237 236 236 236 235 238 244 249 251 252 253 254 255 256 256 256 257 260 264 267 269 272 272 272 272 272 272 269 266 264 265 266 268 268 265 264 265 268 269 269 266 263 261 260 260 261 262 263 264 266 268 271 273 276 278 279 280 281 283 285 287 288 287 288 289 288 286 284 282 281 281 282
227 228 231 233 233 233 234 233 232 233 234 234 234 235 236 237 237 238 241 246 248 248 248 250 252 254 255 257 259 262 265 267 267 267 270 272 272 271 270 270 271 270 268 268 269 270 270 267 265 265 268 271 271 269 266 263 264 265 267 267 267 268 269 270 271 272 273 275 277 279 280 282 284 286 286 287 288 289 289 287 286 284 283 282 282
228 229 231 234 235 236 236 236 236 236 237 237 238 239 240 241 242 244 247 250 251 249 249 250 253 255 256 259 262 263 264 265 266 267 270 272 273 271 270 269 270 271 271 270 270 270 270 270 268 267 268 271 272 271 268 266 267 269 271 272 273 274 273 272 271 270 271 273 274 276 278 280 282 284 285 286 287 288 288 288 287 287 286 284 283
233 234 233 233 234 235 236 238 239 239 240 241 241 242 244 245 246 247 250 251 252 252 253 255 256 257 258 261 262 263 262 264 266 269 271 273 273 272 271 270 270 270 271 271 271 271 271 270 270 269 270 271 272 272 271 269 269 270 271 273 274 275 275 274 272 271 270 271 272 274 275 278 280 282 284 285 285 286 286 286 287 287 287 286 285
236 237 236 235 233 234 235 237 240 242 243 243 243 244 246 246 247 249 251 253 254 255 257 259 260 261 261 262 262 263 263 265 266 268 269 270 271 272 271 271 270 269 269 270 271 271 271 270 271 271 271 272 272 273 272 271 270 270 271 273 273 274 274 274 274 273 272 272 272 272 273 274 277 279 281 282 283 285 286 285 286 286 286 286 286
235 235 236 236 235 235 235 236 239 241 242 243 244 245 246 247 248 250 251 253 255 256 259 261 262 262 263 263 262 263 264 266 267 267 267 268 268 269 269 270 270 270 269 269 269 270 270 271 271 271 272 272 272 272 271 271 270 271 272 273 273 274 273 273 273 274 274 275 274 274 273 274 275 276 278 280 281 283 285 286 286 286 287 287 286
234 234 235 236 236 236 235 236 237 239 241 242 243 245 246 248 249 250 251 252 253 255 258 260 262 262 263 263 263 263 264 265 266 267 267 267 267 267 268 268 269 270 270 269 269 270 271 272 272 272 272 272 272 271 270 270 270 270 271 273 273 274 274 274 273 274 275 276 276 275 275 274 274 274 275 277 279 281 283 284 285 285 286 287 287
234 234 235 235 236 237 237 237 238 239 241 242 243 244 246 248 249 251 252 252 253 255 257 259 259 260 261 262 262 262 262 263 265 266 266 267 266 267 267 268 268 269 269 269 269 269 270 271 272 272 272 271 271 270 269 268 268 270 272 273 274 274 275 275 275 275 276 277 277 277 276 275 274 273 274 275 277 280 282 283 283 284 285 285 285
234 234 235 235 236 237 237 238 238 240 242 244 245 246 248 249 250 252 253 254 255 256 257 258 258 259 259 260 260 261 262 262 263 264 265 266 267 267 267 267 268 268 269 270 270 269 269 269 270 270 271 271 270 270 270 269 269 270 272 274 275 275 276 276 276 277 278 278 279 279 279 278 277 276 276 276 277 279 280 281 281 282 283 284 284
234 235 235 235 235 236 236 237 238 239 241 243 244 246 248 249 251 252 253 255 256 258 258 259 259 259 259 259 259 259 260 261 262 263 263 264 266 267 268 268 268 268 268 268 269 269 269 268 268 269 270 270 270 270 270 270 270 270 271 272 274 275 275 276 276 276 276 276 277 277 277 278 278 278 277 277 277 278 278 278 279 280 281 282 282
236 236 236 235 236 236 237 238 238 238 240 242 243 244 245 246 248 250 251 253 254 255 256 258 259 259 259 260 260 260 259 260 260 261 262 263 264 265 267 268 269 268 267 267 267 267 267 267 267 268 269 270 270 270 270 269 269 269 269 269 270 271 272 272 273 274 274 274 274 274 274 275 275 276 276 277 277 277 277 278 278 279 279 280 280
238 238 237 237 237 238 238 240 240 240 241 242 244 245 246 246 246 247 249 251 252 253 253 254 256 257 257 257 258 259 260 260 260 260 261 262 262 263 264 265 267 268 267 267 267 266 266 266 266 267 268 268 268 269 269 268 268 268 267 267 267 268 268 269 270 271 272 272 273 273 274 274 274 275 275 275 276 276 277 277 277 277 278 279 279
242 240 240 240 240 241 241 242 243 244 245 245 246 247 248 249 249 249 249 250 252 254 255 255 255 255 255 256 256 256 258 259 260 260 260 261 261 262 262 263 264 265 266 266 266 266 266 266 265 266 266 267 267 267 267 267 267 267 267 267 267 267 267 268 269 269 270 270 271 272 273 273 274 274 274 275 275 276 276 276 277 277 278 278 278
247 246 244 244 243 243 244 245 246 247 248 249 250 250 250 251 251 252 252 251 252 254 257 258 259 259 259 259 259 259 258 258 259 260 261 261 262 263 263 263 263 264 264 265 265 265 265 265 266 266 266 267 267 267 267 267 267 267 267 267 268 268 268 268 268 268 269 269 270 271 271 272 273 273 274 274 275 275 276 276 276 277 277 278 278
251 250 249 248 247 247 248 249 250 251 252 252 253 254 254 254 254 254 254 254 254 255 256 258 260 261 262 262 263 263 263 263 263 263 264 264 264 265 265 265 265 265 266 266 266 266 266 266 266 266 266 267 267 267 268 268 268 268 268 269 269 269 269 269 269 269 269 269 270 270 270 271 271 272 273 273 273 274 274 275 275 276 276 276 276
251 251 251 251 251 251 251 252 252 253 254 255 255 256 256 256 256 256 256 256 256 257 257 258 259 260 261 262 263 263 264 265 266 267 267 268 268 268 268 268 268 269 269 269 269 268 268 268 267 267 268 268 268 269 269 270 270 270 270 271 270 270 270 270 270 270 270 270 270 270 270 271 271 271 271 271 272 272 273 273 274 274 274 275 275
253 253 253 252 252 253 253 254 254 254 255 255 256 257 257 258 258 258 258 258 259 259 259 259 259 259 260 261 261 262 263 264 265 267 268 268 269 270 270 270 270 270 270 270 270 269 269 268 268 269 269 269 270 270 271 272 272 272 272 272 272 271 271 271 271 271 271 271 271 271 271 271 271 271 271 271 272 272 272 273 273 273 274 274 275
253 253 254 254 254 254 254 254 255 255 255 256 256 257 257 258 258 259 259 260 260 261 261 261 261 261 261 261 262 262 263 263 264 265 266 267 268 268 269 270 270 270 270 270 270 270 269 269 269 269 269 269 269 269 270 270 271 272 272 273 273 272 272 272 272 271 271 272 272 272 272 272 272 273 273 273 273 273 273 273 274 274 274 274 275
253 253 254 254 255 255 255 255 255 256 256 256 256 257 257 257 258 258 259 259 260 261 261 262 262 262 262 263 263 263 264 264 265 266 266 266 267 267 267 268 269 269 270 270 270 270 270 270 270 270 270 270 270 269 269 269 269 269 270 271 271 272 272 272 272 272 272 272 272 272 272 272 272 273 273 273 273 273 274 274 274 274 274 274 275
253 253 254 254 254 255 255 256 256 257 257 257 257 257 258 258 258 258 258 259 259 259 260 261 261 262 262 263 263 264 264 264 265 266 266 267 267 267 267 267 267 268 268 269 269 270 270 270 270 271 271 271 271 271 271 271 271 271 270 270 270 270 270 270 271 271 271 271 271 271 271 271 271 271 271 271 272 272 272 273 273 273 273 274 274
253 254 254 254 255 255 255 255 256 257 257 257 258 258 258 259 259 259 259 259 259 259 260 260 261 261 262 262 263 263 264 264 264 265 265 266 266 266 267 267 267 267 267 268 268 269 269 269 270 270 271 271 272 273 273 273 274 274 273 273 273 272 272 272 272 272 272 272 272 272 272 272 272 271 271 271 271 271 272 272 272 272 273 273 273
254 254 254 255 255 256 256 256 256 256 257 257 258 258 259 259 259 259 259 259 260 260 260 260 261 261 261 262 262 263 263 263 263 264 264 265 265 265 265 266 266 266 267 267 267 267 268 268 269 270 270 271 272 272 273 274 274 274 274 275 275 275 275 275 275 275 275 275 275 275 275 274 274 274 274 274 274 274 275 275 275 275 275 275 275
254 254 255 255 256 256 257 257 257 258 258 258 258 258 259 259 259 260 260 260 260 260 261 261 261 261 261 261 262 262 263 263 263 264 264 264 265 265 265 266 266 266 266 267 267 267 268 268 269 270 270 271 271 272 272 273 273 273 274 274 274 275 275 275 275 276 276 276 276 276 276 276 276 276 276 277 277 277 277 277 278 278 278 278 278
255 255 255 255 256 256 257 257 258 258 258 259 259 259 260 260 260 260 260 260 261 261 261 261 261 261 261 261 262 262 262 263 263 264 264 265 265 265 265 266 266 266 266 266 267 267 268 268 269 269 270 270 270 271 271 271 272 272 272 273 273 273 274 274 275 275 276 276 276 276 276 276 277 277 277 277 278 278 278 279 279 279 279 280 280
255 256 256 256 256 256 257 257 258 258 258 259 259 260 260 261 261 261 261 261 261 261 261 262 262 262 262 262 262 262 263 263 263 264 264 264 265 265 265 265 266 266 266 267 267 267 268 268 269 269 269 269 270 270 270 271 271 271 271 272 272 272 272 273 273 274 274 274 275 275 275 275 276 276 276 277 277 278 278 278 279 279 279 279 280
256 256 256 256 257 257 257 258 258 258 259 259 259 260 260 261 261 261 262 262 262 262 262 262 262 263 263 263 263 263 264 264 264 264 264 264 265 265 265 266 266 266 266 267 267 267 268 268 268 269 269 269 270 270 270 270 270 271 271 271 271 272 272 272 272 273 273 273 274 274 274 275 275 275 276 276 276 277 277 277 278 278 278 278 279
256 256 256 257 257 257 257 258 258 259 259 260 260 260 261 261 261 262 262 262 263 263 263 263 263 263 263 264 264 264 264 264 265 265 265 265 265 266 266 266 266 266 267 267 267 268 268 268 268 268 269 269 269 269 270 270 270 271 271 271 271 271 272 272 272 272 273 273 273 274 274 274 274 275 275 275 276 276 276 277 277 277 277 278 278
256 256 257 257 257 258 258 258 258 259 259 260 260 260 261 261 262 262 262 263 263 263 264 264 264 264 264 264 264 264 264 265 265 265 265 265 266 266 266 267 267 268 268 268 268 268 268 268 269 269 269 269 269 270 270 270 270 271 271 271 271 272 272 272 272 272 273 273 273 273 273 274 274 274 275 275 275 276 276 276 277 277 277 278 278
256 256 257 257 258 258 258 259 259 259 259 259 260 260 260 261 261 262 263 263 264 264 264 264 264 265 265 265 265 265 265 265 265 265 265 265 266 266 267 267 268 268 268 268 268 268 269 269 269 269 269 270 270 270 271 271 271 271 272 272 272 272 273 273 273 273 273 274 274 274 274 274 274 275 275 275 275 276 276 276 277 277 277 277 278
Height
11022 11023 11023 11023 11023 11024 11024 11024 11024 11023 11023 11022 11022 11021 11021 11020 11019 11019 11018 11018 11017 11017 11016 11016 11016 11015 11015 11015 11015 11015 11015 11015 11015 11016 11016 11017 11018 11018 11019 11019 11020 11020 11020 11021 11022 11022 11023 11023 11023 11023 11023 11023 11023 11023 11023 11024 11024 11024 11023 11023 11022 11021 11021 11020 11020 11019 11019 11018 11017 11016 11015 11013 11012 11011 11010 11009 11008 11007 11005 11004 11002 11000 10998 10997 10995
11022 11023 11023 11024 11024 11024 11025 11025 11025 11025 11025 11025 11025 11024 11024 11023 11023 11022 11021 11021 11020 11020 11020 11020 11019 11019 11019 11019 11019 11019 11019 11019 11019 11020 11020 11020 11021 11021 11021 11022 11022 11023 11023 11023 11024 11024 11025 11025 11025 11025 11025 11025 11025 11025 11026 11026 11025 11025 11025 11025 11024 11023 11023 11022 11022 11021 11020 11020 11019 11018 11017 11015 11014 11013 11012 11011 11010 11008 11007 11005 11004 11002 11000 10999 10997
11022 11022 11023 11024 11024 11025 11025 11026 11026 11026 11027 11027 11027 11026 11026 11026 11026 11025 11025 11024 11023 11023 11022 11022 11022 11022 11022 11022 11022 11022 11022 11023 11023 11023 11023 11023 11023 11023 11024 11024 11024 11025 11025 11026 11026 11026 11027 11027 11027 11027 11027 11027 11027 11028 11028 11027 11027 11027 11026 11026 11025 11025 11024 11024 11023 11022 11022 11021 11020 11019 11018 11017 11016 11015 11014 11013 11012 11010 11009 11007 11005 11003 11002 11001 10999
11021 11022 11023 11023 11024 11024 11025 11025 11026 11026 11027 11027 11028 11028 11028 11028 11028 11027 11027 11027 11026 11025 11025 11024 11024 11024 11024 11025 11025 11025 11025 11025 11025 11025 11026 11026 11026 11026 11026 11026 11026 11027 11027 11027 11028 11028 11028 11029 11029 11029 11029 11029 11029 11029 11029 11029 11028 11028 11027 11027 11026 11026 11025 11025 11024 11023 11023 11022 11021 11021 11020 11019 11018 11017 11017 11016 11014 11013 11011 11009 11007 11006 11004 11003 11002
11020 11021 11022 11022 11023 11023 11024 11025 11025 11026 11026 11027 11028 11028 11029 11029 11029 11029 11029 11029 11028 11028 11027 11027 11026 11026 11026 11026 11027 11027 11028 11028 11028 11028 11028 11028 11028 11028 11028 11028 11028 11029 11029 11029 11029 11029 11030 11030 11030 11030 11030 11030 11030 11030 11030 11030 11030 11029 11028 11028 11027 11026 11026 11025 11025 11024 11024 11023 11022 11022 11021 11020 11020 11019 11018 11017 11016 11015 11014 11012 11010 11009 11007 11005 11004
11019 11019 11020 11021 11022 11022 11023 11024 11024 11025 11026 11026 11027 11028 11029 11029 11030 11030 11030 11030 11030 11030 11029 11029 11028 11028 11028 11028 11028 11029 11029 11030 11030 11030 11030 11030 11030 11030 11030 11030 11030 11030 11031 11031 11031 11031 11031 11031 11031 11031 11031 11031 11031 11031 11031 11030 11030 11030 11029 11028 11028 11027 11027 11026 11026 11025 11024 11024 11023 11023 11022 11022 11021 11020 11020 11018 11017 11016 11015 11014 11013 11011 11010 11008 11007
11017 11018 11019 11019 11020 11021 11022 11022 11023 11024 11025 11025 11026 11027 11028 11028 11029 11030 11030 11031 11031 11031 11031 11031 11030 11030 11030 11030 11030 11030 11030 11031 11031 11031 11032 11032 11032 11032 11032 11032 11032 11032 11032 11032 11032 11032 11032 11032 11032 11032 11032 11032 11032 11031 11031 11031 11030 11030 11030 11029 11029 11028 11028 11027 11026 11026 11025 11025 11024 11024 11023 11023 11022 11022 11021 11020 11019 11017 11017 11016 11015 11013 11012 11011 11009
11015 11016 11017 11018 11018 11019 11020 11021 11022 11022 11023 11024 11025 11025 11026 11027 11028 11029 11030 11030 11031 11031 11031 11032 11032 11031 11031 11031 11031 11031 11031 11032 11032 11032 11033 11033 11033 11033 11033 11033 11034 11034 11033 11033 11033 11033 11033 11033 11033 11033 11033 11033 11032 11032 11031 11031 11031 11030 11030 11030 11029 11029 11028 11028 11027 11026 11026 11025 11025 11024 11024 11024 11023 11022 11021 11020 11019 11018 11018 11017 11016 11015 11014 11012 11011
11014 11015 11016 11017 11017 11017 11018 11019 11020 11021 11021 11022 11022 11023 11024 11025 11026 11027 11028 11029 11030 11030 11031 11031 11032 11032 11032 11032 11032 11032 11032 11032 11032 11033 11033 11033 11034 11034 11034 11034 11034 11034 11034 11034 11034 11034 11034 11034 11034 11034 11034 11033 11033 11032 11032 11031 11031 11031 11030 11030 11030 11029 11029 11028 11027 11027 11026 11026 11025 11025 11025 11024 11023 11022 11022 11021 11020 11019 11018 11018 11017 11016 11015 11014 11012
11012 11013 11014 11015 11016 11017 11017 11017 11018 11019 11019 11019 11020 11020 11021 11022 11023 11024 11026 11027 11028 11029 11030 11030 11031 11032 11033 11033 11033 11033 11033 11032 11032 11032 11032 11033 11033 11033 11034 11034 11034 11034 11034 11034 11034 11034 11034 11034 11034 11034 11034 11033 11033 11032 11032 11032 11031 11031 11030 11030 11030 11029 11029 11028 11027 11027 11026 11026 11025 11025 11024 11024 11024 11023 11022 11022 11021 11020 11019 11018 11018 11017 11016 11015 11014
11009 11010 11012 11013 11014 11015 11015 11015 11015 11016 11016 11017 11017 11018 11018 11019 11020 11022 11023 11025 11026 11027 11028 11029 11030 11031 11031 11032 11033 11033 11033 11033 11032 11032 11032 11032 11032 11032 11033 11033 11034 11034 11034 11034 11034 11034 11034 11034 11034 11034 11034 11033 11032 11032 11032 11031 11031 11030 11030 11029 11029 11029 11028 11028 11027 11026 11025 11025 11025 11024 11024 11024 11023 11023 11023 11022 11021 11020 11019 11018 11017 11017 11016 11015 11014
11006 11007 11008 11010 11011 11012 11012 11012 11012 11013 11014 11014 11015 11015 11015 11015 11017 11018 11020 11022 11023 11025 11026 11027 11028 11028 11029 11030 11031 11032 11032 11032 11032 11032 11032 11031 11031 11031 11032 11032 11032 11032 11033 11033 11033 11033 11033 11033 11033 11033 11032 11032 11031 11031 11031 11030 11030 11029 11029 11028 11028 11028 11028 11027 11026 11025 11025 11024 11024 11024 11023 11023 11022 11022 11023 11023 11021 11020 11019 11018 11017 11017 11016 11015 11015
11001 11003 11004 11006 11007 11008 11008 11008 11008 11009 11010 11011 11011 11011 11011 11012 11013 11015 11016 11018 11020 11022 11023 11024 11025 11026 11027 11028 11028 11029 11030 11030 11031 11031 11031 11030 11030 11030 11030 11031 11031 11031 11031 11031 11031 11032 11032 11032 11031 11031 11031 11031 11030 11030 11030 11029 11029 11028 11027 11027 11026 11026 11027 11026 11025 11024 11023 11023 11022 11022 11022 11022 11021 11021 11022 11022 11021 11020 11019 11018 11017 11017 11016 11015 11015
10995 10998 11000 11001 11002 11002 11002 11003 11003 11004 11005 11005 11005 11006 11007 11009 11010 11011 11013 11015 11016 11018 11019 11021 11022 11023 11024 11025 11026 11027 11027 11028 11028 11029 11029 11029 11029 11029 11029 11029 11029 11029 11029 11029 11030 11030 11030 11030 11029 11029 11029 11029 11029 11028 11028 11027 11027 11027 11026 11025 11024 11024 11024 11025 11024 11023 11022 11022 11021 11020 11020 11020 11020 11020 11020 11020 11020 11019 11019 11018 11017 11016 11015 11015 11014
10991 10994 10996 10996 10996 10995 10996 10997 10997 10998 10998 10998 10999 11001 11003 11004 11006 11007 11009 11011 11013 11014 11016 11017 11019 11020 11021 11021 11022 11024 11025 11025 11026 11026 11027 11027 11027 11027 11027 11028 11028 11027 11027 11027 11028 11028 11028 11028 11027 11027 11026 11027 11026 11026 11025 11025 11025 11024 11024 11023 11022 11022 11022 11022 11022 11021 11021 11020 11020 11019 11018 11018 11018 11018 11018 11018 11018 11018 11018 11017 11016 11015 11014 11014 11013
10987 10989 10991 10991 10991 10992 10992 10992 10992 10991 10991 10993 10995 10997 10999 11000 11001 11003 11005 11007 11009 11011 11013 11014 11016 11017 11018 11018 11019 11020 11021 11022 11023 11024 11024 11025 11025 11025 11025 11025 11025 11025 11025 11025 11026 11026 11026 11025 11025 11024 11024 11024 11024 11024 11023 11023 11022 11022 11021 11021 11020 11020 11020 11020 11020 11019 11019 11019 11018 11018 11017 11016 11016 11016 11016 11016 11016 11016 11016 11015 11014 11014 11013 11012 11011
10983 10984 10985 10986 10988 10989 10988 10988 10988 10987 10988 10991 10994 10995 10996 10996 10998 11000 11002 11004 11006 11008 11009 11011 11012 11013 11014 11015 11016 11017 11018 11019 11020 11021 11021 11022 11022 11022 11022 11023 11023 11023 11023 11023 11023 11023 11023 11022 11022 11022 11021 11021 11021 11020 11020 11020 11019 11019 11018 11018 11018 11017 11017 11017 11016 11016 11016 11016 11016 11016 11016 11015 11015 11014 11014 11014 11013 11013 11013 11012 11012 11012 11011 11011 11010
10977 10978 10980 10981 10983 10984 10984 10984 10984 10984 10984 10987 10991 10993 10994 10995 10996 10998 10999 11001 11003 11004 11005 11007 11009 11009 11010 11010 11012 11013 11014 11016 11016 11017 11018 11018 11019 11019 11019 11020 11020 11020 11020 11020 11020 11020 11019 11019 11019 11019 11018 11018 11018 11017 11017 11016 11016 11016 11016 11016 11015 11015 11014 11013 11013 11013 11013 11013 11014 11014 11013 11013 11013 11012 11012 11011 11011 11010 11010 11010 11009 11009 11009 11009 11008
10971 10972 10973 10975 10978 10979 10979 10980 10980 10980 10981 10983 10986 10989 10992 10993 10995 10995 10996 10997 10998 11000 11001 11002 11003 11004 11005 11006 11007 11008 11010 11011 11012 11013 11014 11015 11015 11016 11016 11017 11017 11018 11018 11018 11017 11017 11016 11016 11016 11015 11014 11014 11014 11013 11012 11012 11012 11012 11012 11012 11012 11011 11011 11010 11010 11010 11010 11010 11010 11011 11011 11011 11010 11010 11010 11009 11008 11007 11007 11007 11007 11006 11006 11006 11005
10965 10967 10968 10971 10974 10975 10975 10976 10976 10977 10977 10978 10980 10983 10987 10990 10992 10991 10991 10991 10992 10994 10995 10996 10997 10998 11000 11001 11002 11003 11004 11005 11006 11008 11009 11011 11012 11012 11011 11012 11014 11015 11015 11015 11014 11012 11012 11012 11011 11011 11010 11010 11010 11009 11009 11008 11008 11008 11008 11008 11008 11007 11007 11007 11007 11007 11007 11007 11007 11007 11008 11008 11007 11007 11007 11007 11006 11005 11004 11004 11003 11003 11003 11002 11002
10961 10963 10965 10967 10969 10970 10971 10971 10972 10973 10973 10973 10974 10977 10981 10984 10985 10986 10986 10986 10987 10988 10989 10990 10991 10993 10993 10995 10996 10996 10997 10999 11000 11002 11004 11006 11008 11007 11007 11009 11011 11011 11013 11013 11010 11007 11006 11006 11006 11006 11006 11006 11006 11005 11005 11005 11004 11004 11003 11003 11002 11002 11003 11003 11003 11003 11003 11003 11003 11003 11003 11003 11003 11003 11004 11003 11003 11002 11002 11001 11000 11000 10999 10999 10998
10957 10959 10960 10961 10962 10962 10963 10965 10966 10968 10968 10968 10969 10972 10974 10974 10976 10977 10979 10980 10981 10982 10982 10983 10985 10986 10987 10988 10989 10990 10992 10993 10994 10996 10998 11000 11002 11002 11002 11004 11006 11007 11008 11008 11004 11002 11002 11002 11001 11001 11002 11002 11002 11002 11001 11000 10999 10999 10998 10998 10997 10997 10997 10998 10998 10998 10999 10999 10999 10999 10998 10998 10998 10998 10999 10998 10998 10998 10998 10997 10997 10996 10995 10995 10995
10950 10952 10950 10950 10953 10954 10955 10957 10959 10959 10959 10960 10960 10962 10962 10963 10965 10968 10971 10973 10974 10975 10975 10976 10979 10980 10980 10981 10983 10984 10986 10988 10989 10990 10991 10993 10995 10995 10996 10997 10999 11000 11001 11000 10998 10997 10997 10997 10997 10997 10997 10998 10998 10997 10996 10996 10995 10994 10994 10993 10992 10991 10992 10993 10993 10994 10994 10994 10994 10993 10993 10993 10993 10993 10993 10992 10992 10993 10993 10992 10992 10991 10991 10991 10990
10941 10943 10941 10942 10946 10947 10947 10949 10950 10949 10949 10951 10952 10952 10953 10956 10958 10960 10963 10966 10968 10968 10968 10969 10972 10974 10974 10975 10977 10979 10980 10982 10983 10983 10985 10986 10988 10989 10990 10990 10991 10993 10994 10994 10992 10991 10991 10991 10991 10992 10993 10992 10992 10992 10991 10991 10991 10990 10989 10988 10987 10987 10988 10988 10988 10988 10988 10988 10988 10988 10987 10987 10988 10988 10987 10986 10986 10986 10986 10986 10985 10985 10985 10986 10985
10930 10935 10935 10936 10939 10941 10940 10941 10941 10941 10941 10942 10943 10945 10947 10950 10952 10953 10955 10958 10959 10959 10960 10962 10965 10967 10966 10966 10969 10972 10973 10974 10974 10975 10978 10980 10981 10982 10983 10983 10984 10985 10986 10987 10987 10985 10984 10985 10986 10986 10987 10986 10986 10986 10986 10986 10986 10984 10982 10981 10982 10983 10983 10983 10982 10981 10982 10982 10982 10982 10981 10981 10981 10981 10981 10980 10980 10980 10979 10978 10978 10978 10978 10978 10979
10921 10925 10928 10929 10931 10933 10933 10933 10934 10935 10935 10935 10936 10938 10939 10942 10943 10945 10947 10949 10950 10951 10953 10955 10957 10958 10957 10957 10960 10963 10962 10963 10967 10969 10970 10972 10973 10974 10975 10976 10977 10978 10979 10980 10980 10979 10977 10978 10979 10979 10980 10979 10978 10978 10979 10980 10979 10976 10975 10975 10976 10976 10977 10976 10975 10975 10975 10976 10975 10975 10974 10973 10973 10973 10973 10973 10973 10972 10972 10971 10971 10971 10970 10970 10970
10911 10915 10917 10919 10921 10923 10925 10926 10928 10927 10926 10926 10927 10929 10930 10932 10934 10937 10939 10940 10941 10943 10945 10947 10948 10949 10948 10948 10951 10951 10951 10953 10958 10962 10963 10963 10964 10964 10965 10967 10968 10970 10971 10972 10972 10971 10971 10971 10971 10972 10971 10970 10969 10970 10971 10972 10970 10967 10967 10967 10968 10968 10968 10968 10968 10967 10968 10968 10968 10968 10967 10965 10964 10964 10965 10965 10965 10964 10964 10964 10964 10963 10962 10962 10962
10901 10904 10906 10908 10909 10912 10916 10918 10918 10915 10914 10915 10918 10920 10922 10923 10926 10928 10931 10931 10932 10933 10935 10938 10939 10939 10939 10940 10941 10941 10941 10944 10947 10950 10953 10954 10954 10955 10956 10957 10958 10960 10962 10963 10963 10963 10963 10963 10963 10963 10963 10961 10960 10960 10962 10962 10961 10959 10958 10959 10959 10959 10960 10960 10960 10959 10959 10960 10960 10960 10959 10957 10955 10955 10955 10955 10955 10955 10955 10955 10955 10954 10954 10953 10953
10891 10893 10895 10896 10898 10901 10904 10906 10905 10903 10903 10907 10911 10913 10914 10915 10917 10919 10921 10922 10923 10924 10925 10928 10929 10930 10930 10931 10931 10931 10931 10933 10936 10938 10940 10942 10943 10945 10946 10947 10949 10950 10952 10953 10954 10954 10955 10955 10954 10953 10952 10951 10951 10951 10951 10952 10951 10950 10950 10949 10949 10950 10950 10951 10951 10950 10950 10950 10950 10950 10949 10948 10946 10946 10945 10944 10945 10945 10946 10947 10946 10945 10945 10944 10944
10882 10883 10884 10885 10886 10889 10892 10894 10894 10892 10893 10897 10901 10904 10905 10906 10907 10909 10910 10912 10913 10915 10916 10918 10919 10920 10920 10920 10920 10921 10921 10922 10924 10926 10927 10929 10931 10933 10935 10937 10938 10940 10941 10943 10944 10945 10946 10946 10944 10943 10941 10940 10940 10940 10941 10942 10942 10941 10941 10940 10940 10940 10940 10940 10940 10940 10939 10939 10939 10939 10938 10937 10936 10935 10935 10934 10934 10935 10936 10936 10936 10935 10935 10934 10934
10873 10873 10873 10874 10875 10877 10879 10881 10883 10883 10884 10886 10890 10893 10895 10897 10897 10898 10899 10901 10902 10905 10906 10907 10908 10909 10909 10909 10910 10910 10910 10911 10913 10914 10915 10916 10917 10919 10922 10924 10927 10929 10931 10932 10933 10934 10936 10935 10933 10931 10929 10928 10928 10929 10930 10932 10933 10933 10932 10931 10930 10929 10929 10929 10929 10928 10928 10928 10928 10927 10926 10924 10924 10924 10924 10924 10924 10924 10925 10926 10926 10925 10924 10924 10923
10862 10863 10863 10863 10864 10865 10866 10868 10871 10872 10874 10876 10879 10882 10884 10886 10887 10888 10889 10889 10891 10893 10894 10895 10896 10897 10898 10899 10900 10901 10900 10900 10901 10903 10904 10905 10904 10905 10906 10909 10913 10917 10919 10920 10920 10922 10923 10922 10920 10919 10918 10917 10917 10917 10919 10921 10922 10923 10923 10922 10920 10919 10919 10919 10918 10917 10916 10916 10916 10915 10914 10913 10913 10913 10914 10913 10913 10913 10914 10914 10914 10914 10913 10912 10910
10849 10851 10852 10853 10853 10853 10854 10856 10859 10862 10863 10864 10867 10870 10873 10875 10877 10878 10878 10879 10880 10881 10882 10883 10884 10884 10885 10885 10887 10888 10890 10891 10891 10892 10893 10894 10895 10894 10894 10894 10897 10901 10904 10905 10906 10908 10908 10907 10906 10906 10906 10906 10906 10906 10907 10908 10910 10911 10912 10912 10911 10910 10908 10908 10907 10905 10904 10904 10904 10903 10903 10903 10903 10903 10902 10902 10901 10901 10901 10902 10901 10901 10900 10898 10897
10836 10838 10839 10840 10842 10843 10843 10844 10847 10850 10851 10852 10853 10856 10859 10862 10864 10866 10868 10869 10870 10871 10871 10871 10872 10873 10873 10873 10873 10874 10875 10877 10878 10880 10881 10882 10884 10885 10885 10885 10886 10887 10887 10889 10890 10892 10893 10892 10892 10892 10893 10893 10893 10893 10894 10894 10895 10897 10898 10898 10899 10898 10897 10896 10894 10893 10892 10891 10890 10890 10890 10890 10891 10891 10890 10889 10889 10888 10888 10888 10887 10886 10886 10885 10883
10821 10825 10826 10827 10829 10831 10832 10832 10834 10836 10838 10839 10841 10843 10844 10847 10849 10852 10855 10857 10859 10859 10860 10861 10862 10863 10863 10863 10862 10863 10863 10863 10864 10866 10867 10869 10871 10873 10875 10876 10876 10874 10873 10874 10875 10876 10876 10876 10876 10877 10878 10878 10879 10879 10880 10880 10881 10882 10883 10884 10884 10884 10884 10883 10882 10880 10879 10878 10877 10876 10875 10875 10876 10876 10875 10875 10874 10873 10873 10872 10871 10871 10870 10869 10868
10804 10809 10812 10813 10814 10817 10819 10821 10822 10823 10823 10825 10828 10830 10831 10833 10835 10837 10839 10842 10845 10846 10847 10847 10848 10849 10850 10851 10852 10853 10853 10852 10852 10852 10854 10855 10857 10860 10862 10864 10864 10862 10861 10860 10861 10861 10861 10860 10860 10861 10862 10863 10864 10864 10865 10865 10866 10867 10867 10868 10869 10869 10869 10869 10868 10866 10865 10864 10863 10862 10861 10861 10861 10861 10860 10860 10859 10858 10857 10856 10856 10855 10854 10852 10851
10788 10792 10795 10797 10798 10801 10804 10807 10808 10809 10810 10811 10813 10815 10817 10819 10820 10822 10823 10826 10829 10832 10833 10834 10834 10834 10835 10836 10838 10840 10840 10839 10839 10839 10840 10842 10844 10846 10848 10849 10850 10849 10848 10847 10846 10846 10846 10845 10845 10846 10847 10848 10848 10849 10849 10850 10850 10851 10851 10852 10852 10853 10853 10853 10852 10851 10849 10848 10847 10847 10847 10847 10847 10846 10845 10844 10843 10842 10841 10840 10839 10838 10837 10835 10834
10772 10775 10777 10779 10780 10783 10786 10789 10792 10794 10796 10797 10798 10800 10801 10803 10805 10807 10809 10811 10813 10816 10818 10819 10819 10820 10820 10821 10823 10824 10825 10824 10824 10824 10826 10827 10829 10831 10832 10833 10833 10833 10832 10832 10831 10830 10830 10830 10830 10831 10832 10833 10834 10834 10835 10835 10835 10835 10835 10835 10835 10836 10836 10836 10835 10834 10833 10831 10831 10831 10831 10832 10831 10830 10829 10828 10827 10826 10825 10824 10823 10821 10819 10818 10816
10755 10758 10760 10761 10762 10765 10768 10771 10773 10776 10779 10782 10783 10784 10784 10786 10788 10790 10792 10794 10796 10798 10800 10802 10803 10804 10806 10807 10809 10809 10810 10810 10809 10809 10810 10812 10814 10816 10817 10818 10818 10817 10817 10816 10815 10814 10814 10813 10813 10814 10815 10816 10817 10818 10819 10819 10819 10819 10819 10819 10820 10820 10820 10820 10819 10817 10816 10815 10814 10814 10814 10814 10814 10814 10812 10811 10810 10809 10808 10807 10805 10804 10802 10800 10798
10738 10741 10742 10743 10744 10746 10749 10752 10755 10758 10761 10764 10766 10767 10768 10769 10770 10772 10775 10777 10778 10779 10780 10782 10784 10786 10789 10791 10792 10793 10794 10794 10795 10795 10795 10797 10799 10801 10803 10803 10804 10803 10803 10801 10800 10799 10798 10797 10797 10797 10797 10798 10799 10800 10800 10800 10801 10801 10802 10802 10803 10803 10803 10803 10802 10801 10800 10798 10797 10797 10797 10797 10797 10796 10795 10794 10793 10792 10790 10788 10787 10786 10785 10783 10782
10721 10723 10724 10725 10726 10728 10730 10733 10736 10739 10742 10744 10746 10748 10750 10751 10753 10755 10757 10759 10761 10762 10763 10763 10764 10766 10769 10772 10774 10776 10777 10777 10778 10779 10779 10779 10781 10784 10787 10789 10789 10788 10786 10785 10784 10783 10782 10781 10781 10781 10781 10782 10782 10783 10784 10784 10785 10785 10784 10784 10784 10785 10785 10784 10784 10783 10783 10782 10781 10780 10780 10780 10779 10778 10776 10776 10775 10774 10772 10770 10768 10767 10766 10765 10764
10703 10704 10705 10707 10709 10711 10712 10714 10716 10719 10721 10723 10726 10728 10730 10731 10733 10735 10737 10741 10744 10746 10747 10747 10747 10749 10751 10754 10756 10757 10758 10759 10759 10760 10761 10762 10763 10765 10767 10770 10771 10771 10769 10768 10766 10765 10764 10764 10763 10763 10763 10763 10765 10766 10767 10768 10769 10768 10768 10767 10767 10767 10766 10766 10765 10765 10764 10764 10763 10762 10762 10762 10761 10760 10759 10757 10756 10755 10753 10751 10750 10748 10747 10745 10744
10684 10685 10687 10689 10691 10692 10694 10696 10698 10700 10701 10703 10706 10708 10709 10710 10711 10713 10716 10721 10725 10727 10728 10730 10731 10733 10734 10736 10737 10738 10738 10739 10739 10740 10742 10743 10745 10746 10747 10748 10750 10752 10751 10750 10748 10746 10745 10744 10743 10744 10744 10745 10747 10748 10749 10750 10750 10750 10749 10748 10748 10747 10747 10747 10746 10746 10746 10746 10745 10745 10744 10743 10743 10741 10739 10737 10736 10735 10734 10733 10731 10730 10728 10727 10725
10664 10666 10669 10671 10672 10673 10675 10677 10679 10681 10683 10685 10687 10688 10688 10688 10689 10691 10695 10700 10704 10707 10709 10711 10714 10716 10717 10718 10718 10718 10718 10718 10719 10720 10721 10722 10724 10725 10727 10729 10730 10731 10731 10729 10727 10726 10725 10725 10725 10726 10727 10728 10729 10730 10730 10730 10730 10730 10729 10729 10728 10727 10727 10727 10726 10726 10726 10726 10726 10725 10725 10725 10723 10721 10718 10716 10715 10715 10714 10713 10712 10710 10708 10707 10705
10646 10648 10650 10652 10653 10654 10656 10657 10659 10661 10662 10665 10667 10668 10667 10667 10667 10670 10674 10678 10683 10686 10688 10691 10693 10696 10698 10699 10699 10698 10699 10700 10701 10701 10701 10701 10702 10704 10706 10708 10709 10709 10708 10707 10706 10706 10706 10706 10707 10708 10709 10710 10711 10711 10711 10710 10710 10709 10709 10709 10708 10707 10706 10706 10705 10705 10705 10705 10705 10705 10705 10705 10703 10700 10698 10696 10695 10694 10693 10691 10690 10689 10687 10685 10683
10626 10629 10631 10633 10634 10635 10636 10637 10639 10641 10642 10644 10646 10647 10647 10647 10647 10649 10652 10656 10661 10665 10667 10669 10671 10674 10676 10678 10679 10680 10682 10683 10682 10681 10680 10681 10683 10684 10685 10685 10684 10684 10685 10686 10687 10688 10688 10688 10689 10689 10690 10691 10691 10691 10691 10690 10689 10689 10690 10690 10689 10688 10686 10685 10684 10683 10683 10684 10684 10684 10684 10683 10682 10680 10678 10677 10675 10674 10672 10670 10669 10667 10665 10663 10661
10605 10608 10611 10613 10615 10616 10616 10616 10618 10620 10622 10624 10627 10628 10628 10627 10627 10628 10629 10633 10637 10641 10645 10647 10650 10651 10653 10655 10658 10661 10664 10664 10663 10661 10661 10661 10662 10662 10661 10661 10661 10662 10664 10666 10667 10668 10668 10668 10669 10669 10670 10670 10670 10670 10669 10669 10668 10668 10668 10669 10669 10668 10667 10666 10664 10663 10663 10663 10664 10664 10663 10663 10661 10660 10658 10657 10656 10654 10652 10650 10648 10646 10644 10642 10640
10584 10586 10588 10591 10593 10594 10595 10596 10597 10598 10601 10604 10606 10608 10608 10608 10606 10606 10606 10609 10613 10617 10621 10625 10627 10629 10630 10633 10636 10639 10641 10641 10641 10641 10641 10640 10640 10640 10640 10640 10641 10642 10643 10645 10646 10647 10647 10647 10647 10648 10648 10647 10647 10647 10647 10647 10646 10646 10646 10646 10646 10646 10645 10644 10644 10643 10643 10643 10643 10643 10642 10641 10640 10639 10638 10636 10635 10634 10632 10630 10628 10626 10624 10622 10619
10564 10565 10567 10569 10571 10573 10575 10577 10578 10579 10581 10583 10584 10586 10589 10588 10585 10583 10584 10587 10590 10593 10597 10600 10603 10606 10609 10611 10614 10616 10617 10617 10618 10619 10619 10618 10618 10618 10618 10617 10618 10620 10622 10625 10626 10627 10626 10625 10625 10625 10625 10625 10624 10624 10624 10624 10624 10624 10623 10623 10622 10622 10622 10622 10622 10622 10622 10622 10622 10621 10620 10619 10618 10616 10615 10614 10612 10611 10609 10608 10606 10604 10602 10600 10597
10546 10547 10547 10548 10549 10551 10554 10556 10557 10559 10561 10561 10562 10565 10568 10566 10561 10560 10563 10566 10568 10571 10574 10576 10578 10581 10584 10588 10591 10593 10593 10594 10595 10595 10595 10595 10595 10595 10596 10596 10597 10600 10602 10603 10603 10602 10601 10600 10600 10601 10602 10602 10602 10601 10602 10602 10601 10601 10600 10599 10598 10598 10598 10598 10598 10598 10598 10598 10598 10597 10596 10596 10595 10594 10592 10591 10589 10588 10586 10584 10582 10581 10579 10577 10574
10529 10529 10529 10529 10530 10531 10532 10534 10536 10538 10540 10540 10542 10544 10546 10544 10541 10541 10543 10545 10546 10549 10551 10553 10554 10556 10558 10562 10565 10567 10568 10569 10570 10571 10572 10573 10575 10576 10577 10577 10578 10579 10578 10577 10576 10575 10574 10573 10574 10576 10578 10579 10579 10578 10578 10578 10578 10577 10576 10575 10574 10574 10574 10573 10573 10573 10573 10573 10573 10572 10571 10571 10571 10570 10568 10567 10566 10564 10563 10561 10559 10557 10555 10553 10551